Weather in Esto-Sadok

Russia / Krasnodar Krai     43°41′06″N   40°15′21″E
temp.,
°C
wind,
m/s
gust,
m/s
humid.,
%
clouds,
%
prec.,
mm/h
press.,
hPa
HPBL,
m
12 april, mon
mon1200:000w11100100 1.9 102080
03:000sse12100100 6.8 1021105
06:00−1ne219572 2.1 102112
09:00+1sw11100100 3.0 1020139
12:00+2w11100100 1.1 1020202
15:00+2wsw12100100 1.7 1020165
18:00+1sw11100100 2.9 1022247
21:00+1ne11100100 9.0 102347
13 april, tue
tue1300:000w01100100 0.5 102390
03:00+1ene119999 0.6 102384
06:00−2ne329089 0.0 102428
09:00+2nne1194100 0.1 1021211
12:00+2w1199100 1.3 1021185
15:00+2wsw21100100 2.4 1021163
18:00+2ne229591 0.1 1021208
21:00−1ne3290100 0.1 102214
14 april, wed
wed1400:00−2ne2292100 0.0 102211
03:00−2ene2290100 0.0 102211
06:00−2ene218999 0.0 102111
09:00+2sw1195100 0.0 1019159
12:00+4sw219295 0.1 1018388
15:00+4sw119063 0.3 1018446
18:00+3ne119214 0.0 101822
21:00−2ene328650 0.0 102120
15 april, thu
thu1500:00−3ene43722 0.0 102121
03:00−2ene33650 0.0 102119
06:00−2ene435847 0.0 102020
09:00+5s1261100 0.0 1016185
12:00+8sw236380 0.0 1016761
15:00+7ssw237391 0.5 1016420
18:00+6ssw128132 1.2 101770
21:00+1ene328158 1.3 102017
16 april, fri
fri1600:00+1e3279100 0.0 101921
03:00+2ene328470 0.0 101929
06:00+1ene327950 0.1 101928
09:00+7s127090 0.2 1016522
12:00+8ssw237496 1.4 1016644
15:00+8s2374100 3.4 1016850
18:00+4ese3492100 4.4 1018210
21:00+4ese459297 4.9 1020135